Total_Precipitation_Accumulation
0.01 0.03 0.04 0.05 0.07 0.06 0.04 0.04 0.14 0.13 0.14 0.10 0.04 0.02 0.02 0.01 0.01 0.01 0.01 0.01 0.01 0.01 0.01 0.02 0.02 0.04 0.10 0.15 0.15 0.23 0.43 0.54 0.43 0.27 0.19 0.13 0.11 0.14 0.19 0.27 0.33 0.47 0.63 0.74
0.01 0.03 0.03 0.04 0.08 0.06 0.03 0.02 0.02 0.04 0.06 0.03 0.02 0.02 0.02 0.02 0.02 0.02 0.02 0.02 0.02 0.02 0.01 0.02 0.03 0.04 0.04 0.07 0.12 0.21 0.37 0.49 0.43 0.33 0.21 0.13 0.12 0.14 0.21 0.28 0.33 0.42 0.51 0.52
0.02 0.03 0.03 0.10 0.09 0.05 0.02 0.02 0.03 0.05 0.06 0.03 0.04 0.04 0.04 0.05 0.04 0.03 0.02 0.02 0.01 0.01 0.01 0.01 0.03 0.05 0.06 0.06 0.10 0.22 0.37 0.46 0.47 0.42 0.32 0.25 0.17 0.18 0.25 0.30 0.35 0.41 0.41 0.43
0.01 0.02 0.08 0.09 0.03 0.03 0.03 0.03 0.03 0.04 0.05 0.05 0.06 0.05 0.05 0.06 0.04 0.02 0.01 0.01 0.01 0.01 0.01 0.01 0.02 0.03 0.05 0.06 0.10 0.19 0.31 0.44 0.50 0.49 0.45 0.43 0.33 0.32 0.36 0.40 0.43 0.47 0.44 0.45
0.02 0.02 0.07 0.06 0.05 0.06 0.05 0.04 0.05 0.06 0.06 0.06 0.05 0.04 0.04 0.03 0.02 0.01 0.01 0.01 0.01 0.01 0.02 0.02 0.03 0.03 0.04 0.06 0.10 0.17 0.26 0.41 0.50 0.52 0.51 0.50 0.48 0.48 0.52 0.56 0.52 0.49 0.49 0.52
0.03 0.06 0.10 0.08 0.09 0.10 0.08 0.14 0.10 0.06 0.05 0.03 0.04 0.06 0.03 0.01 0.01 0.01 0.01 0.01 0.01 0.01 0.02 0.03 0.04 0.05 0.07 0.09 0.15 0.23 0.28 0.39 0.54 0.64 0.70 0.69 0.67 0.63 0.63 0.72 0.66 0.60 0.55 0.59
0.06 0.11 0.10 0.07 0.08 0.07 0.14 0.19 0.08 0.03 0.03 0.04 0.08 0.11 0.06 0.02 0.01 0.02 0.02 0.02 0.02 0.02 0.03 0.05 0.06 0.10 0.15 0.19 0.25 0.27 0.31 0.37 0.51 0.71 0.82 0.82 0.85 0.81 0.78 0.80 0.82 0.82 0.74 0.75
0.08 0.16 0.17 0.08 0.08 0.13 0.15 0.10 0.07 0.06 0.07 0.08 0.08 0.05 0.03 0.02 0.01 0.01 0.01 0.02 0.02 0.03 0.05 0.06 0.10 0.19 0.28 0.33 0.34 0.35 0.39 0.47 0.58 0.71 0.65 0.66 0.90 0.96 0.99 1.05 1.04 0.99 0.95 0.87
0.09 0.13 0.08 0.09 0.12 0.16 0.20 0.19 0.13 0.09 0.06 0.05 0.05 0.03 0.02 0.02 0.02 0.02 0.02 0.03 0.04 0.07 0.09 0.13 0.21 0.35 0.47 0.47 0.46 0.46 0.50 0.56 0.63 0.71 0.82 0.94 1.03 1.06 1.09 1.15 1.16 1.09 1.04 0.98
0.09 0.08 0.09 0.14 0.14 0.09 0.08 0.08 0.06 0.03 0.02 0.02 0.03 0.04 0.04 0.04 0.03 0.03 0.02 0.03 0.05 0.11 0.19 0.27 0.37 0.50 0.58 0.57 0.57 0.56 0.58 0.59 0.64 0.75 0.85 0.97 1.14 1.20 1.21 1.18 1.17 1.14 1.07 1.02
0.10 0.08 0.07 0.12 0.13 0.06 0.03 0.01 0.01 0.01 0.01 0.03 0.05 0.06 0.06 0.06 0.06 0.05 0.04 0.05 0.09 0.17 0.26 0.34 0.47 0.58 0.59 0.61 0.68 0.71 0.68 0.66 0.67 0.75 0.90 0.99 1.10 1.21 1.20 1.24 1.08 1.02 0.95 0.92
0.11 0.10 0.08 0.09 0.07 0.04 0.03 0.02 0.03 0.03 0.03 0.04 0.05 0.06 0.06 0.07 0.06 0.06 0.05 0.08 0.15 0.24 0.30 0.34 0.45 0.60 0.65 0.73 0.81 0.86 0.83 0.75 0.71 0.76 0.89 1.00 1.10 1.12 0.95 0.89 0.71 0.64 0.64 0.61
0.05 0.05 0.04 0.04 0.03 0.03 0.04 0.04 0.04 0.05 0.05 0.05 0.05 0.05 0.05 0.05 0.05 0.06 0.07 0.12 0.21 0.31 0.37 0.41 0.47 0.59 0.70 0.84 0.94 1.01 0.97 0.87 0.79 0.78 0.86 0.94 1.05 1.20 1.23 1.01 0.76 0.60 0.53 0.46
0.03 0.03 0.03 0.02 0.02 0.02 0.03 0.03 0.03 0.05 0.06 0.06 0.06 0.07 0.07 0.06 0.07 0.09 0.13 0.19 0.26 0.35 0.41 0.48 0.56 0.64 0.74 0.89 0.99 1.03 1.03 0.92 0.84 0.84 0.88 0.91 0.97 1.11 1.27 1.29 1.07 0.76 0.60 0.50
0.03 0.03 0.04 0.03 0.02 0.02 0.03 0.03 0.05 0.07 0.08 0.08 0.08 0.08 0.08 0.08 0.10 0.14 0.19 0.28 0.40 0.46 0.48 0.55 0.65 0.70 0.84 1.00 1.06 1.04 0.99 0.91 0.83 0.86 0.88 0.87 0.93 1.01 1.12 1.20 1.13 0.98 0.82 0.64
0.04 0.03 0.02 0.03 0.03 0.03 0.03 0.04 0.04 0.06 0.07 0.08 0.08 0.08 0.08 0.09 0.12 0.16 0.24 0.42 0.64 0.68 0.64 0.66 0.69 0.72 0.90 1.07 1.09 1.05 0.96 0.76 0.69 0.74 0.80 0.82 0.90 0.98 1.03 1.10 1.09 1.03 0.90 0.68
0.05 0.04 0.03 0.03 0.04 0.04 0.04 0.05 0.06 0.06 0.08 0.10 0.09 0.08 0.09 0.12 0.19 0.27 0.39 0.51 0.61 0.64 0.66 0.72 0.69 0.68 0.84 0.99 1.05 1.01 0.92 0.77 0.58 0.58 0.68 0.75 0.84 0.92 0.96 0.96 0.98 0.96 0.81 0.56
0.04 0.04 0.03 0.03 0.04 0.05 0.05 0.06 0.06 0.07 0.08 0.10 0.13 0.14 0.18 0.26 0.40 0.54 0.65 0.68 0.65 0.57 0.57 0.62 0.59 0.62 0.77 0.84 0.89 0.95 0.90 0.82 0.66 0.58 0.61 0.66 0.74 0.84 0.86 0.82 0.81 0.79 0.70 0.49
0.04 0.05 0.04 0.04 0.03 0.04 0.05 0.06 0.07 0.07 0.08 0.10 0.15 0.20 0.27 0.38 0.54 0.68 0.77 0.88 0.91 0.80 0.63 0.56 0.52 0.56 0.70 0.73 0.75 0.88 0.87 0.79 0.67 0.61 0.62 0.60 0.64 0.74 0.75 0.70 0.67 0.62 0.55 0.46
0.04 0.04 0.04 0.03 0.03 0.03 0.04 0.05 0.07 0.08 0.10 0.14 0.21 0.27 0.37 0.52 0.69 0.83 0.89 0.93 0.95 0.92 0.74 0.59 0.53 0.54 0.60 0.66 0.73 0.77 0.80 0.76 0.64 0.59 0.60 0.64 0.64 0.66 0.62 0.58 0.53 0.48 0.43 0.40
0.02 0.02 0.02 0.02 0.02 0.02 0.03 0.04 0.08 0.12 0.16 0.21 0.30 0.39 0.50 0.64 0.78 0.93 1.14 1.15 0.93 0.83 0.70 0.60 0.55 0.53 0.55 0.62 0.68 0.73 0.77 0.78 0.68 0.58 0.56 0.58 0.58 0.59 0.56 0.53 0.46 0.38 0.36 0.36
0.01 0.01 0.01 0.01 0.02 0.03 0.04 0.06 0.11 0.19 0.28 0.34 0.37 0.45 0.59 0.71 0.85 0.99 1.08 1.24 1.13 0.98 0.73 0.58 0.50 0.47 0.46 0.53 0.58 0.67 0.70 0.72 0.66 0.56 0.51 0.51 0.51 0.56 0.57 0.50 0.41 0.32 0.31 0.31
0.01 0.01 0.02 0.03 0.04 0.05 0.05 0.08 0.14 0.27 0.40 0.49 0.52 0.59 0.73 0.79 0.92 1.23 1.30 1.16 1.11 0.99 0.70 0.54 0.50 0.43 0.39 0.42 0.51 0.58 0.61 0.62 0.61 0.50 0.43 0.41 0.42 0.47 0.49 0.42 0.37 0.29 0.27 0.24
0.01 0.02 0.03 0.04 0.05 0.08 0.11 0.16 0.22 0.33 0.42 0.46 0.46 0.54 0.70 0.79 0.80 0.88 1.09 1.21 1.15 0.99 0.73 0.58 0.50 0.41 0.36 0.35 0.48 0.59 0.61 0.60 0.57 0.45 0.36 0.33 0.35 0.39 0.39 0.36 0.32 0.27 0.23 0.20
0.02 0.03 0.04 0.05 0.10 0.18 0.27 0.35 0.44 0.49 0.53 0.53 0.46 0.44 0.55 0.70 0.81 0.78 0.82 0.94 1.07 0.96 0.78 0.66 0.55 0.49 0.39 0.37 0.46 0.55 0.58 0.56 0.48 0.41 0.36 0.37 0.38 0.37 0.33 0.31 0.28 0.23 0.21 0.18
0.03 0.04 0.05 0.06 0.12 0.25 0.41 0.57 0.73 0.75 0.76 0.75 0.62 0.49 0.50 0.56 0.61 0.65 0.71 0.77 0.84 0.84 0.76 0.70 0.60 0.52 0.47 0.45 0.46 0.52 0.57 0.59 0.51 0.44 0.43 0.46 0.44 0.39 0.36 0.31 0.24 0.21 0.17 0.14
0.03 0.04 0.05 0.08 0.17 0.30 0.47 0.62 0.79 0.84 0.85 0.88 0.75 0.55 0.48 0.50 0.51 0.56 0.62 0.69 0.71 0.72 0.70 0.65 0.59 0.51 0.46 0.45 0.46 0.49 0.54 0.56 0.53 0.49 0.45 0.42 0.42 0.38 0.33 0.28 0.23 0.18 0.14 0.11